Kalaeloa, HI

6:44 AM HST on April 29, 2017 (GMT -1000)
Kalaeloa (John Rodgers Field)

Weather History for PHJR - November, 2012

Change the Weather History Date:

Saturday, November 3, 2012

  Actual Average (PHHI) Record (PHHI)
Temperature  
Mean Temperature 75 °F -  
Max Temperature 82 °F 78 °F 84 °F (1999)
Min Temperature 68 °F 66 °F 62 °F (1999)
Cooling Degree Days 10    
Growing Degree Days 25 (Base 50)    
Moisture  
Dew Point 66 °F    
Average Humidity 70    
Maximum Humidity 87    
Minimum Humidity 56    
Precipitation  
Precipitation 0.00 in - - ()
Sea Level Pressure  
Sea Level Pressure 29.99 in    
Wind  
Wind Speed 5 mph (South)    
Max Wind Speed 10 mph    
Max Gust Speed -    
Visibility 10 miles    
Events      
Averages and records for this station are not official NWS values.
T = Trace of Precipitation, MM = Missing Value Source: NWS Daily Summary

Daily Weather History Graph

Daily Weather History Graph

Search for Another Location

Airport or City:

Trip Planner

Search our weather history database for the weather conditions in past years. The results will help you decide how hot, cold, wet, or windy it might be!

Date:

Astronomy

Nov. 03, 2012 Rise Set
Actual Time 6:36 AM HST 5:54 PM HST
Civil Twilight 6:13 AM HST 6:17 PM HST
Nautical Twilight 5:47 AM HST 6:44 PM HST
Astronomical Twilight 5:20 AM HST 7:10 PM HST
Moon 9:56 PM HST (11/3) 10:37 AM HST (11/3)
Length of Visible Light 12h 04m
Length of Day
11h 18m
Waning Gibbous, 78% of the Moon is Illuminated
Nov 3
Waning Gibbous
Nov 6
Last Quarter
Nov 13
New
Nov 20
First Quarter
Nov 28
Full

Hourly Weather History & Observations

Time (HST) Temp. Heat Index Dew Point Humidity Pressure Visibility Wind Dir Wind Speed Gust Speed Precip Events Conditions
12:53 AM 75.9 °F - 66.0 °F 71% 30.00 in 10.0 mi SW 9.2 mph - N/A   Scattered Clouds
1:53 AM 75.0 °F - 64.9 °F 71% 29.99 in 10.0 mi SSW 5.8 mph - N/A   Clear
2:53 AM 75.0 °F - 66.0 °F 73% 29.98 in 10.0 mi South 5.8 mph - N/A   Partly Cloudy
3:21 AM 71.6 °F - 64.4 °F 78% 29.95 in 10.0 mi Calm Calm - N/A   Mostly Cloudy
3:53 AM 75.0 °F - 66.0 °F 73% 29.97 in 10.0 mi South 5.8 mph - N/A   Scattered Clouds
4:53 AM 75.0 °F - 66.0 °F 73% 29.97 in 10.0 mi South 4.6 mph - N/A   Partly Cloudy
5:53 AM 70.0 °F - 64.0 °F 81% 29.98 in 10.0 mi Calm Calm - N/A   Scattered Clouds
6:53 AM 68.0 °F - 64.0 °F 87% 29.99 in 9.0 mi Calm Calm - N/A   Clear
7:53 AM 75.9 °F - 66.0 °F 71% 30.01 in 8.0 mi SSE 8.1 mph - N/A   Clear
8:53 AM 78.1 °F - 63.0 °F 60% 30.02 in 10.0 mi SE 3.5 mph - N/A   Clear
9:53 AM 80.1 °F 81.7 °F 64.0 °F 58% 30.03 in 10.0 mi SSE 5.8 mph - N/A   Clear
10:53 AM 82.0 °F 83.8 °F 64.9 °F 56% 30.02 in 10.0 mi South 8.1 mph - N/A   Clear
11:53 AM 82.0 °F 84.1 °F 66.0 °F 58% 30.01 in 10.0 mi SSW 8.1 mph - N/A   Clear
12:53 PM 82.0 °F 84.5 °F 66.9 °F 60% 29.99 in 10.0 mi South 10.4 mph - N/A   Clear
1:53 PM 81.0 °F 83.3 °F 66.9 °F 62% 29.97 in 10.0 mi South 8.1 mph - N/A   Clear
2:53 PM 81.0 °F 83.0 °F 66.0 °F 60% 29.95 in 10.0 mi South 8.1 mph - N/A   Clear
3:53 PM 80.1 °F 82.1 °F 66.0 °F 62% 29.95 in 10.0 mi South 6.9 mph - N/A   Clear
4:53 PM 79.0 °F - 66.0 °F 64% 29.96 in 10.0 mi South 5.8 mph - N/A   Clear
5:53 PM 77.0 °F - 66.0 °F 69% 29.98 in 10.0 mi SSW 4.6 mph - N/A   Partly Cloudy
6:53 PM 77.0 °F - 66.0 °F 69% 30.00 in 10.0 mi South 3.5 mph - N/A   Mostly Cloudy
7:53 PM 77.0 °F - 66.9 °F 71% 30.01 in 10.0 mi South 4.6 mph - N/A   Clear
8:53 PM 73.9 °F - 66.0 °F 76% 30.03 in 10.0 mi Calm Calm - N/A   Clear
9:53 PM 72.0 °F - 66.0 °F 81% 30.03 in 10.0 mi Calm Calm - N/A   Partly Cloudy
10:53 PM 72.0 °F - 64.9 °F 78% 30.03 in 10.0 mi Calm Calm - N/A   Scattered Clouds
11:53 PM 70.0 °F - 64.9 °F 84% 30.02 in 10.0 mi Calm Calm - N/A   Clear